Regional Weather Roundup
Issued by NWS

Home | Current Version | Previous Version | Graphics & Text | Print | Product List | Glossary On
Versions: 1 2 3 4 5 6 7 8 9 10 11 12 13 14 15 16 17 18 19 20 21 22 23 24 25 26 27 28 29 30 31 32 33 34 35 36 37 38 39 40 41 42 43 44 45 46 47 48 49 50
000
ASUS45 KTFX 251710
RWRMT
MONTANA REGIONAL WEATHER ROUNDUP
NATIONAL WEATHER SERVICE GREAT FALLS MT
1100 AM MDT MON MAY 25 2015

NOTE: "FAIR" INDICATES FEW OR NO CLOUDS BELOW 12000 FEET WITH NO
SIGNIFICANT WEATHER AND/OR OBSTRUCTIONS TO VISIBILITY.

MTZ001>007-043-251800-
WEST OF THE DIVIDE

CITY           SKY/WX    TMP DP  RH WIND       PRES   REMARKS
KALISPELL      CLOUDY    63  42  46 NW5       29.89R
MISSOULA       MOSUNNY   62  41  46 CALM      29.90F
BUTTE          SUNNY     57  37  47 CALM      29.96F
MULLAN PASS    LGT RAIN  45  44  97 CALM      29.96S FOG
DEER LODGE       N/A     61  45  55 CALM      29.97S
EUREKA           N/A     59  45  58 SE9       29.92R
HAMILTON         N/A     59  41  51 W2        29.90F
LIBBY            N/A     54  52  94 S3        29.94F
RONAN            N/A     65  47  52 W8        29.94R
THOMPSON FALLS   N/A     59  49  69 W15       29.96S
$$

MTZ008-052>055-251800-
SOUTHWEST MONTANA

CITY           SKY/WX    TMP DP  RH WIND       PRES   REMARKS
BOZEMAN        MOSUNNY   55  45  68 N3        29.95F
DILLON         SUNNY     58  42  55 VRB3      29.94F
W YELLOWSTONE  MOSUNNY   50  37  62 CALM      29.99S
THREE FORKS      N/A     59  36  42 CALM      29.95S
$$

MTZ009-010-012-014-046-048-049-054-251800-
EAST SLOPES AND CENTRAL MONTANA

CITY           SKY/WX    TMP DP  RH WIND       PRES   REMARKS
CUT BANK       SUNNY     62  42  47 SE12      29.90F
GREAT FALLS    SUNNY     64  46  52 E6        29.91S
MALMSTROM AFB  SUNNY     61  46  58 S1        29.91F
HELENA         SUNNY     61  47  59 NE6       29.92F
CONRAD           N/A     64  48  56 E6        29.94F
$$

MTZ011-013-016-021-045-047-050-051-251800-
NORTH CENTRAL MONTANA

CITY           SKY/WX    TMP DP  RH WIND       PRES   REMARKS
HAVRE          SUNNY     71  43  36 E5        29.88F
LEWISTOWN      SUNNY     63  45  51 VRB3      29.93S
N BAR RANCH    PTSUNNY   61  43  51 E6        29.95F
CHINOOK          N/A     70  43  37 CALM      29.88F
FORT BENTON      N/A     66  46  48 E5        29.91S
$$

MTZ017>020-022>027-061-062-251800-
NORTHEAST MONTANA

CITY           SKY/WX    TMP DP  RH WIND       PRES   REMARKS
GLASGOW        SUNNY     71  44  37 VRB3      29.86F
JORDAN           N/A     66  46  48 CALM      29.88F
SIDNEY         PTSUNNY   66  52  59 SE6       29.89S
WOLF POINT     MOSUNNY   73  45  36 MISG      29.87S
MALTA            N/A     72  48  42 CALM      29.85F
POPLAR           N/A     70  43  37 E12       29.88S
SCOBEY           N/A     74  38  27 E13       29.88R
$$

MTZ028>42-056>058-251800-
SOUTHCENTRAL AND SOUTHEAST MONTANA

CITY           SKY/WX    TMP DP  RH WIND       PRES   REMARKS
BAKER          CLOUDY    57  51  80 NE13      29.91R
BILLINGS       CLOUDY    58  47  66 CALM      29.94R
LIVINGSTON     SUNNY     59  43  55 CALM      29.94F
MILES CITY     PTSUNNY   63  50  62 E3        29.89S
BIG TIMBER       N/A     59  45  58 E5        29.96S
EKALAKA          N/A     55  50  83 N8        29.89S
FORSYTH          N/A     64  48  55 SE3       29.90S
LAUREL           N/A     58  44  59 CALM      29.94R
ROUNDUP          N/A     63  46  53 CALM      29.85S
$$

REGIONAL REPORTS...DAKOTAS

CITY           SKY/WX    TMP DP  RH WIND       PRES   REMARKS
WILLISTON      MOSUNNY   72  46  39 CALM      29.87F
MINOT          PTSUNNY   73  46  38 VRB5      29.84F
DICKINSON      CLOUDY    58  54  86 NE7       29.88S
BEACH          CLOUDY    57  57 100 E5        29.92S
CROSBY         FAIR      73  39  29 SW3       29.87S
WATFORD CITY   FAIR      66  48  52 E3        29.87S
BISMARCK       CLOUDY    64  55  72 VRB3      29.86S
GRAND FORKS    CLOUDY    66  50  56 NW6       29.76S
FARGO          LGT RAIN  63  57  81 NE9       29.78R
BUFFALO SD       N/A     55  53  93 NE13      29.81R
RAPID CITY     CLOUDY    59  52  77 N14       29.82S
$$

REGIONAL REPORTS...WYOMING/IDAHO/WASHINGTON

CITY           SKY/WX    TMP DP  RH WIND       PRES   REMARKS
GILLETTE       CLOUDY    52  50  93 N14       29.91R
SHERIDAN       CLOUDY    55  49  80 N6        29.94R
BUFFALO WY     LGT RAIN  50  47  89 N8        29.95S
CODY           CLOUDY    54  45  71 N3        29.96S
YELLOWSTONE LA   N/A     43  34  70 VRB3      30.05R
IDAHO FALLS    MOSUNNY   60  47  61 SW8       29.96S
SALMON         PTSUNNY   57  43  58 N5        29.93F
BOISE          SUNNY     69  47  45 W5        29.89F
SPOKANE        CLOUDY    57  48  72 SE9       29.90R
$$

REGIONAL REPORTS...ALBERTA

CITY           SKY/WX    TMP DP  RH WIND       PRES   REMARKS
EDMONTON       MOSUNNY   75  39  27 SW3       29.86S
CALGARY        CLOUDY    66  39  37 S17G23    29.90S
LETHBRIDGE     PTSUNNY   68  39  34 S17G25    29.87F
MEDICINE HAT   CLOUDY    73  41  31 N6        29.87F
$$

REGIONAL REPORTS...SASKATCHEWAN

CITY           SKY/WX    TMP DP  RH WIND       PRES   REMARKS
SWIFT CURRENT  SUNNY     73  36  25 E7        29.88F
REGINA         MOSUNNY   77  37  24 VRB3      29.84F
SASKATOON      MOSUNNY   79  34  19 W12       29.85F
$$



USA.gov is the U.S. government's official web portal to all federal, state and local government web resources and services.